| time (UTC) | temp F | wind direction | speed knots | gust knots | rain 1hr in | rain 24hr in | rain mn in | humidity % | barometer mb |
| 20260505003018 | 49 | 225 | 1.7 | 6.1 | 0.00 | 0.00 | 0.00 | 92 | 1028.6 |
| 20260505000018 | 47 | 203 | 1.7 | 6.1 | 0.00 | 0.00 | 0.00 | 92 | 1028.3 |
| 20260504233058 | 44 | 0.0 | 0.9 | 0.00 | 0.00 | 0.00 | 92 | 1027.9 | |
| 20260504230017 | 45 | 0 | 0.9 | 2.6 | 0.00 | 0.00 | 0.00 | 91 | 1027.7 |
| 20260504223018 | 46 | 0 | 1.7 | 4.3 | 0.00 | 0.00 | 0.00 | 91 | 1027.7 |
| 20260504220017 | 46 | 0 | 1.7 | 4.3 | 0.00 | 0.00 | 0.00 | 91 | 1027.7 |
| 20260504213017 | 47 | 0 | 1.7 | 4.3 | 0.00 | 0.00 | 0.00 | 91 | 1027.7 |
| 20260504210018 | 45 | 0 | 0.9 | 2.6 | 0.00 | 0.00 | 0.00 | 91 | 1027.8 |
| 20260504203017 | 45 | 0 | 0.9 | 2.6 | 0.00 | 0.00 | 0.00 | 89 | 1027.8 |
| 20260504200038 | 46 | 0 | 0.9 | 3.5 | 0.00 | 0.00 | 0.00 | 89 | 1027.4 |
| 20260504193037 | 48 | 0 | 0.9 | 4.3 | 0.00 | 0.00 | 0.00 | 90 | 1027.5 |
| 20260504190017 | 47 | 0.0 | 0.9 | 0.00 | 0.00 | 0.00 | 90 | 1027.5 | |
| 20260504183017 | 46 | 0.0 | 0.0 | 0.00 | 0.00 | 0.00 | 88 | 1027.7 | |
| 20260504180037 | 47 | 0.0 | 0.0 | 0.00 | 0.00 | 0.00 | 88 | 1027.6 | |
| 20260504173016 | 46 | 0.0 | 0.0 | 0.00 | 0.00 | 0.00 | 88 | 1027.9 | |
| 20260504050019 | 63 | 113 | 6.1 | 11.3 | 0.00 | 0.00 | 0.00 | 68 | 1027.9 |
| 20260504043039 | 62 | 113 | 7.0 | 13.0 | 0.00 | 0.00 | 0.00 | 70 | 1028.3 |
| 20260504040018 | 61 | 113 | 7.0 | 13.9 | 0.00 | 0.00 | 0.00 | 74 | 1028.8 |
| 20260504033017 | 61 | 113 | 7.0 | 13.0 | 0.00 | 0.00 | 0.00 | 75 | 1029.3 |
| 20260504030018 | 59 | 113 | 8.7 | 15.6 | 0.00 | 0.00 | 0.00 | 77 | 1029.2 |
| 20260504023018 | 59 | 113 | 8.7 | 14.8 | 0.00 | 0.00 | 0.00 | 79 | 1029.4 |
| 20260504020038 | 58 | 113 | 11.3 | 14.8 | 0.00 | 0.00 | 0.00 | 81 | 1029.9 |
| 20260504013017 | 56 | 113 | 7.8 | 14.8 | 0.00 | 0.00 | 0.00 | 89 | 1029.8 |
| 20260504010018 | 53 | 158 | 1.7 | 7.0 | 0.00 | 0.00 | 0.00 | 93 | 1029.7 |